Weather History for Petaluma, CA

Change the Weather History Date:

Tuesday, January 21, 2014

  Actual Average (KAPC) Record (KAPC)
Temperature  
Mean Temperature 48 °F 46 °F  
Max Temperature 69 °F 55 °F 68 °F (2007)
Min Temperature 26 °F 37 °F 26 °F (2008)
Degree Days  
Heating Degree Days 18    
Month to date heating degree days  
Since 1 July heating degree days  
Cooling Degree Days 0    
Month to date cooling degree days  
Year to date cooling degree days  
Moisture  
Dew Point 28 °F    
Average Humidity 61    
Maximum Humidity 100    
Minimum Humidity 21    
Precipitation  
Precipitation 0.00 in - 3.52 in (1967)
Month to date precipitation  
Year to date precipitation  
Since 1 July precipitation  
Sea Level Pressure  
Sea Level Pressure 30.24 in    
Wind  
Wind Speed 0 mph (SW)    
Max Wind Speed 6 mph    
Max Gust Speed -    
Visibility 10 miles    
Events      
T = Trace of Precipitation, MM = Missing Value Source: NWS Daily Summary

Daily Weather History Graph

Daily Weather History Graph

Search for Another Location

Airport:

Trip Planner

Search our weather history database for the weather conditions in past years. The results will help you decide how hot, cold, wet, or windy it might be!

Date:

Astronomy

Jan. 21, 2014 Rise Set
Actual Time 7:23 AM PST 5:20 PM PST
Civil Twilight 6:54 AM PST 5:49 PM PST
Nautical Twilight 6:22 AM PST 6:21 PM PST
Astronomical Twilight 5:50 AM PST 6:53 PM PST
Moon 10:53 PM PST (1/21) 10:00 AM PST (1/21)
Length of Visible Light 10h 54m
Length of Day
9h 57m
Waning Gibbous, 73% of the Moon is Illuminated
Jan 21
Waning Gibbous
Jan 23
Last Quarter
Jan 30
New
Feb 6
First Quarter
Feb 14
Full

Hourly Weather History & Observations

Time (PST) Temp. Windchill Dew Point Humidity Pressure Visibility Wind Dir Wind Speed Gust Speed Precip Events Conditions
12:15 AM 35.6 °F - 28.4 °F 75% 30.26 in 10.0 mi Calm Calm - N/A   Partly Cloudy
12:35 AM 35.6 °F - 30.2 °F 81% 30.26 in 10.0 mi Calm Calm - N/A   Partly Cloudy
12:55 AM 35.6 °F - 32.0 °F 87% 30.26 in 10.0 mi Calm Calm - N/A   Clear
1:15 AM 32.0 °F - 28.4 °F 87% 30.25 in 10.0 mi Calm Calm - N/A   Clear
1:35 AM 32.0 °F - 28.4 °F 87% 30.25 in 10.0 mi Calm Calm - N/A   Partly Cloudy
1:55 AM 33.8 °F - 30.2 °F 87% 30.26 in 10.0 mi Calm Calm - N/A   Partly Cloudy
2:15 AM 32.0 °F - 26.6 °F 80% 30.26 in 10.0 mi Calm Calm - N/A   Clear
2:35 AM 32.0 °F - 26.6 °F 80% 30.26 in 10.0 mi Calm Calm - N/A   Partly Cloudy
2:55 AM 32.0 °F - 28.4 °F 87% 30.26 in 10.0 mi Calm Calm - N/A   Scattered Clouds
3:15 AM 32.0 °F - 26.6 °F 80% 30.26 in 10.0 mi Calm Calm - N/A   Scattered Clouds
3:35 AM 32.0 °F - 26.6 °F 80% 30.26 in 10.0 mi Calm Calm - N/A   Partly Cloudy
3:55 AM 32.0 °F - 26.6 °F 80% 30.26 in 10.0 mi Calm Calm - N/A   Clear
4:15 AM 30.2 °F - 26.6 °F 86% 30.26 in 10.0 mi Calm Calm - N/A   Partly Cloudy
4:35 AM 30.2 °F - 26.6 °F 86% 30.26 in 10.0 mi Calm Calm - N/A   Partly Cloudy
4:55 AM 30.2 °F - 26.6 °F 86% 30.26 in 10.0 mi Calm Calm - N/A   Clear
5:15 AM 28.4 °F - 26.6 °F 93% 30.26 in 10.0 mi Calm Calm - N/A   Partly Cloudy
5:35 AM 28.4 °F - 26.6 °F 93% 30.27 in 10.0 mi Calm Calm - N/A   Clear
5:55 AM 30.2 °F 26.7 °F 30.2 °F 100% 30.26 in 10.0 mi West 3.5 mph - N/A   Partly Cloudy
6:15 AM 28.4 °F - 28.4 °F 100% 30.27 in 10.0 mi Calm Calm - N/A   Clear
6:35 AM 28.4 °F - 28.4 °F 100% 30.28 in 10.0 mi Calm Calm - N/A   Clear
6:55 AM 26.6 °F - 26.6 °F 100% 30.28 in 10.0 mi Calm Calm - N/A   Clear
7:15 AM 26.6 °F - 26.6 °F 100% 30.28 in 10.0 mi Calm Calm - N/A   Clear
7:35 AM 28.4 °F - 28.4 °F 100% 30.29 in 10.0 mi Calm Calm - N/A   Clear
7:55 AM 28.4 °F - 28.4 °F 100% 30.29 in 10.0 mi Calm Calm - N/A   Clear
8:15 AM 30.2 °F - 28.4 °F 93% 30.29 in 10.0 mi Calm Calm - N/A   Clear
8:35 AM 32.0 °F - 28.4 °F 87% 30.30 in 10.0 mi Calm Calm - N/A   Clear
8:55 AM 35.6 °F - 32.0 °F 87% 30.30 in 10.0 mi Calm Calm - N/A   Clear
9:15 AM 39.2 °F - 33.8 °F 81% 30.30 in 10.0 mi Calm Calm - N/A   Clear
9:35 AM 42.8 °F 40.1 °F 32.0 °F 66% 30.30 in 10.0 mi West 4.6 mph - N/A   Clear
9:55 AM 44.6 °F - 32.0 °F 61% 30.30 in 10.0 mi Calm Calm - N/A   Clear
10:15 AM 46.4 °F - 32.0 °F 57% 30.31 in 10.0 mi Calm Calm - N/A   Clear
10:35 AM 48.2 °F - 32.0 °F 54% 30.30 in 10.0 mi Calm Calm - N/A   Clear
10:55 AM 50.0 °F - 32.0 °F 50% 30.29 in 10.0 mi Calm Calm - N/A   Clear
11:15 AM 53.6 °F - 28.4 °F 38% 30.29 in 10.0 mi SSW 3.5 mph - N/A   Clear
11:35 AM 55.4 °F - 28.4 °F 36% 30.29 in 10.0 mi Calm Calm - N/A   Clear
11:55 AM 57.2 °F - 28.4 °F 33% 30.27 in 10.0 mi Calm Calm - N/A   Clear
12:15 PM 59.0 °F - 26.6 °F 29% 30.26 in 10.0 mi Calm Calm - N/A   Clear
12:35 PM 60.8 °F - 26.6 °F 27% 30.24 in 10.0 mi Calm Calm - N/A   Clear
12:55 PM 62.6 °F - 26.6 °F 26% 30.23 in 10.0 mi Calm Calm - N/A   Clear
1:15 PM 64.4 °F - 26.6 °F 24% 30.22 in 10.0 mi Calm Calm - N/A   Clear
1:35 PM 64.4 °F - 26.6 °F 24% 30.21 in 10.0 mi WSW 3.5 mph - N/A   Clear
1:55 PM 66.2 °F - 28.4 °F 24% 30.20 in 10.0 mi WSW 3.5 mph - N/A   Clear
2:15 PM 66.2 °F - 28.4 °F 24% 30.20 in 10.0 mi Calm Calm - N/A   Clear
2:35 PM 68.0 °F - 26.6 °F 21% 30.19 in 10.0 mi Calm Calm - N/A   Clear
2:55 PM 68.0 °F - 28.4 °F 23% 30.19 in 10.0 mi Calm Calm - N/A   Clear
3:15 PM 68.0 °F - 28.4 °F 23% 30.18 in 10.0 mi Calm Calm - N/A   Clear
3:35 PM 69.8 °F - 28.4 °F 21% 30.18 in 10.0 mi Calm Calm - N/A   Clear
3:55 PM 68.0 °F - 30.2 °F 24% 30.18 in 10.0 mi SSE 5.8 mph - N/A   Clear
4:15 PM 66.2 °F - 28.4 °F 24% 30.18 in 10.0 mi SSE 4.6 mph - N/A   Clear
4:35 PM 66.2 °F - 28.4 °F 24% 30.19 in 10.0 mi SSE 3.5 mph - N/A   Clear
4:55 PM 62.6 °F - 30.2 °F 30% 30.19 in 10.0 mi ESE 3.5 mph - N/A   Clear
5:15 PM 59.0 °F - 26.6 °F 29% 30.19 in 10.0 mi Calm Calm - N/A   Clear
5:35 PM 59.0 °F - 26.6 °F 29% 30.20 in 10.0 mi Calm Calm - N/A   Clear
5:55 PM 51.8 °F - 26.6 °F 38% 30.20 in 10.0 mi NNE 3.5 mph - N/A   Clear
6:15 PM 50.0 °F - 24.8 °F 37% 30.20 in 10.0 mi Calm Calm - N/A   Clear
6:35 PM 48.2 °F - 26.6 °F 43% 30.21 in 10.0 mi Calm Calm - N/A   Clear
6:55 PM 48.2 °F - 28.4 °F 46% 30.21 in 10.0 mi WNW 4.6 mph - N/A   Clear
7:15 PM 48.2 °F - 26.6 °F 43% 30.21 in 10.0 mi Calm Calm - N/A   Clear
7:35 PM 44.6 °F - 28.4 °F 53% 30.21 in 10.0 mi Calm Calm - N/A   Clear
7:55 PM 42.8 °F - 28.4 °F 57% 30.21 in 10.0 mi Calm Calm - N/A   Clear
8:15 PM 41.0 °F - 28.4 °F 61% 30.21 in 10.0 mi Calm Calm - N/A   Clear
8:35 PM 41.0 °F - 28.4 °F 61% 30.21 in 10.0 mi Calm Calm - N/A   Clear
8:55 PM 41.0 °F - 26.6 °F 57% 30.22 in 10.0 mi Calm Calm - N/A   Clear
9:15 PM 41.0 °F - 28.4 °F 61% 30.21 in 10.0 mi Calm Calm - N/A   Clear
9:35 PM 39.2 °F - 28.4 °F 65% 30.21 in 10.0 mi Calm Calm - N/A   Clear
9:55 PM 39.2 °F - 26.6 °F 61% 30.21 in 10.0 mi Calm Calm - N/A   Clear
10:15 PM 39.2 °F - 28.4 °F 65% 30.21 in 10.0 mi Calm Calm - N/A   Clear
10:35 PM 37.4 °F - 28.4 °F 70% 30.21 in 10.0 mi Calm Calm - N/A   Clear
10:55 PM 37.4 °F - 28.4 °F 70% 30.21 in 10.0 mi Calm Calm - N/A   Clear
11:15 PM 37.4 °F - 28.4 °F 70% 30.21 in 10.0 mi Calm Calm - N/A   Partly Cloudy
11:35 PM 35.6 °F 31.7 °F 28.4 °F 75% 30.21 in 10.0 mi NW 4.6 mph - N/A   Mostly Cloudy
11:55 PM 37.4 °F - 30.2 °F 75% 30.20 in 10.0 mi Calm Calm - N/A   Scattered Clouds